Hourly Data Report for August 03, 2019

TORONTO CITY
ONTARIO
Current Station Operator: ECCC - MSC

43°40'00.000" N
79°24'00.000" W
112.50 m
6158355
71508
XTO

Download Data

Hourly Data (August 2019)
Hourly Data Report for August 3, 2019
TIME
LST
Temp Definition
°C
Dew Point Definition
°C
Rel Hum Definition
%
Precip. Amount Definition
mm

Wind Dir Definition
10's deg

Wind Spd Definition
km/h
Visibility Definition
km
Stn Press Definition
kPa
Hmdx Definition


Wind Chill Definition


Weather Definition


00:00 20.7 10.9 53 0.0       100.45     LegendNANA
01:00 20.3 10.2 52 0.0       100.42     LegendNANA
02:00 20.1 9.7 51 0.0       100.39     LegendNANA
03:00 18.2 10.4 61 0.0       100.36     LegendNANA
04:00 18.2 10.7 62 0.0       100.36     LegendNANA
05:00 17.2 10.6 65 0.0       100.37     LegendNANA
06:00 17.5 11.5 68 0.0       100.40     LegendNANA
07:00 19.0 13.1 69 0.0       100.41     LegendNANA
08:00 22.7 12.1 51 0.0       100.45 25   LegendNANA
09:00 24.2 10.2 41 0.0       100.41 26   LegendNANA
10:00 26.7 9.3 33 0.0       100.38 28   LegendNANA
11:00 25.0 12.1 45 0.0       100.34 27   LegendNANA
12:00 25.9 10.7 39 0.0       100.30 28   LegendNANA
13:00 26.4 9.9 36 0.0       100.25 28   LegendNANA
14:00 27.1 11.1 37 0.0       100.18 29   LegendNANA
15:00 27.7 11.2 36 0.0       100.13 30   LegendNANA
16:00 27.6 12.0 38 0.0       100.08 30   LegendNANA
17:00 26.9 12.1 40 0.0       100.04 29   LegendNANA
18:00 26.1 13.0 44 0.0       100.00 29   LegendNANA
19:00 25.2 14.3 51 0.0       100.02 29   LegendNANA
20:00 26.4 14.5 48 0.0       100.08 30   LegendNANA
21:00 25.3 13.8 49 0.0       100.15 29   LegendNANA
22:00 24.1 13.8 52 0.0       100.17 27   LegendNANA
23:00 22.9 14.8 60 0.0       100.15 27   LegendNANA

Notes on Data Quality.

Legend

  • E = Estimated
  • M = Missing
  • NA = Not Available*
  • [empty] = Indicates an unobserved value
Date modified: